GSAT0210 (GALILEO 13)

Last updated on Fri Oct 11 2024 00:02:28 GMT+0000 (Coordinated Universal Time)

1 41550U 16030B 24283.72678964 .00000026 00000+0 00000+0 0 9999 2 41550 55.3188 238.6228 0003244 247.0064 112.9427 1.70473493 52173
UTC large
Height (km)
Speed (km/s)
/
Latitude / Longitude
Inclination (degrees)
Orbital Period (minutes)
Azimuth
Elevation
Range (km)
Doppler Factor

Next 0 passes for location: London (51.5072 / 0.1276)

Sorry there are no passes over London.